• In Uzbekistan
  • List of Countries
  • For 7 days
  • Water Temperature
  • Satellite Maps
  • Weather Map
  • Weather Widgets
  • user-avatar
    Login

    Hourly Weather Tarin Kowt

    Today, 20 July, Saturday

    Time Temperature Precipitation Wind Pressure Humidity
    00:00 +25°C° 0 mm 1 mps 613 mmHg 10%
    01:00 +24°C° 0 mm 1 mps 613 mmHg 10%
    02:00 +24°C° 0 mm 1 mps 613 mmHg 12%
    03:00 +23°C° 0 mm 2 mps 613 mmHg 14%
    04:00 +22°C° 0 mm 3 mps 613 mmHg 16%
    05:00 +24°C° 0 mm 3 mps 614 mmHg 22%
    06:00 +26°C° 0 mm 3 mps 615 mmHg 29%
    07:00 +27°C° 0 mm 3 mps 616 mmHg 35%
    08:00 +29°C° 0 mm 3 mps 617 mmHg 31%
    09:00 +31°C° 0 mm 2 mps 617 mmHg 26%
    10:00 +34°C° 0 mm 2 mps 618 mmHg 22%
    11:00 +36°C° 0 mm 2 mps 618 mmHg 19%
    12:00 +37°C° 0 mm 2 mps 617 mmHg 16%
    13:00 +38°C° 0 mm 2 mps 617 mmHg 13%
    14:00 +39°C° 0 mm 3 mps 617 mmHg 11%
    15:00 +39°C° 0 mm 3 mps 617 mmHg 10%
    16:00 +41°C° 0 mm 4 mps 617 mmHg 8%
    17:00 +37°C° 0 mm 3 mps 616 mmHg 10%
    18:00 +35°C° 0 mm 3 mps 615 mmHg 12%
    19:00 +31°C° 0 mm 3 mps 615 mmHg 14%
    20:00 +30°C° 0 mm 2 mps 615 mmHg 15%
    21:00 +29°C° 0 mm 2 mps 615 mmHg 15%
    22:00 +28°C° 0 mm 2 mps 614 mmHg 15%
    23:00 +27°C° 0 mm 2 mps 614 mmHg 16%

    Tomorrow, 21 July, Sunday

    Time Temperature Precipitation Wind Pressure Humidity
    00:00 +26°C° 0 mm 2 mps 614 mmHg 17%
    01:00 +25°C° 0 mm 2 mps 614 mmHg 17%
    02:00 +24°C° 0 mm 2 mps 614 mmHg 23%
    03:00 +24°C° 0 mm 2 mps 614 mmHg 28%
    04:00 +23°C° 0 mm 2 mps 614 mmHg 33%
    05:00 +24°C° 0 mm 2 mps 615 mmHg 32%
    06:00 +26°C° 0 mm 2 mps 616 mmHg 31%
    07:00 +28°C° 0 mm 2 mps 617 mmHg 30%
    08:00 +30°C° 0 mm 2 mps 617 mmHg 26%
    09:00 +32°C° 0 mm 2 mps 618 mmHg 21%
    10:00 +34°C° 0 mm 1 mps 618 mmHg 17%
    11:00 +35°C° 0 mm 1 mps 618 mmHg 14%
    12:00 +37°C° 0 mm 2 mps 618 mmHg 11%
    13:00 +39°C° 0 mm 2 mps 618 mmHg 8%
    14:00 +39°C° 0 mm 2 mps 617 mmHg 7%
    15:00 +39°C° 0 mm 2 mps 617 mmHg 6%
    16:00 +40°C° 0 mm 3 mps 616 mmHg 4%
    17:00 +37°C° 0 mm 2 mps 616 mmHg 6%
    18:00 +32°C° 0 mm 2 mps 615 mmHg 7%
    19:00 +29°C° 0 mm 1 mps 614 mmHg 8%
    20:00 +29°C° 0 mm 2 mps 614 mmHg 9%
    21:00 +28°C° 0 mm 2 mps 614 mmHg 10%
    22:00 +27°C° 0 mm 2 mps 614 mmHg 10%
    23:00 +26°C° 0 mm 2 mps 614 mmHg 12%

    Day after tomorrow, 22 July, Monday

    Time Temperature Precipitation Wind Pressure Humidity
    00:00 +26°C° 0 mm 2 mps 614 mmHg 14%
    01:00 +25°C° 0 mm 2 mps 614 mmHg 15%
    02:00 +24°C° 0 mm 2 mps 614 mmHg 16%
    03:00 +24°C° 0 mm 2 mps 614 mmHg 17%
    04:00 +23°C° 0 mm 2 mps 614 mmHg 17%
    05:00 +25°C° 0 mm 2 mps 614 mmHg 17%
    06:00 +27°C° 0 mm 2 mps 615 mmHg 16%
    07:00 +29°C° 0 mm 2 mps 616 mmHg 15%
    08:00 +31°C° 0 mm 2 mps 616 mmHg 13%
    09:00 +32°C° 0 mm 2 mps 617 mmHg 12%
    10:00 +35°C° 0 mm 2 mps 617 mmHg 10%
    11:00 +37°C° 0 mm 2 mps 617 mmHg 9%
    12:00 +38°C° 0 mm 2 mps 617 mmHg 8%
    13:00 +39°C° 0 mm 1 mps 616 mmHg 7%
    14:00 +39°C° 0 mm 1 mps 616 mmHg 7%
    15:00 +40°C° 0 mm 2 mps 616 mmHg 6%
    16:00 +40°C° 0 mm 2 mps 615 mmHg 5%
    17:00 +37°C° 0 mm 2 mps 614 mmHg 7%
    18:00 +33°C° 0 mm 1 mps 613 mmHg 8%
    19:00 +30°C° 0 mm 1 mps 612 mmHg 10%
    20:00 +29°C° 0 mm 1 mps 612 mmHg 12%
    21:00 +28°C° 0 mm 1 mps 612 mmHg 13%
    22:00 +27°C° 0 mm 1 mps 613 mmHg 15%
    23:00 +26°C° 0 mm 1 mps 612 mmHg 16%

    23 July, Tuesday

    Time Temperature Precipitation Wind Pressure Humidity
    00:00 +25°C° 0 mm 1 mps 612 mmHg 17%
    01:00 +24°C° 0 mm 1 mps 612 mmHg 18%
    02:00 +24°C° 0 mm 1 mps 612 mmHg 19%
    03:00 +24°C° 0 mm 2 mps 612 mmHg 20%
    04:00 +23°C° 0 mm 2 mps 612 mmHg 21%
    05:00 +25°C° 0 mm 2 mps 613 mmHg 20%
    06:00 +27°C° 0 mm 3 mps 614 mmHg 19%
    07:00 +30°C° 0 mm 3 mps 615 mmHg 18%
    08:00 +31°C° 0 mm 2 mps 616 mmHg 16%
    09:00 +34°C° 0 mm 2 mps 616 mmHg 15%
    10:00 +36°C° 0 mm 2 mps 616 mmHg 13%
    11:00 +37°C° 0 mm 2 mps 616 mmHg 12%
    12:00 +39°C° 0 mm 3 mps 616 mmHg 10%
    13:00 +40°C° 0 mm 3 mps 616 mmHg 9%
    14:00 +41°C° 0 mm 4 mps 616 mmHg 8%
    15:00 +41°C° 0 mm 4 mps 616 mmHg 8%
    16:00 +41°C° 0 mm 5 mps 615 mmHg 7%
    17:00 +39°C° 0 mm 5 mps 615 mmHg 8%
    18:00 +36°C° 0 mm 5 mps 614 mmHg 9%
    19:00 +34°C° 0 mm 4 mps 614 mmHg 10%
    20:00 +32°C° 0 mm 4 mps 613 mmHg 11%
    21:00 +30°C° 0 mm 3 mps 613 mmHg 12%
    22:00 +28°C° 0 mm 2 mps 613 mmHg 13%
    23:00 +27°C° 0 mm 2 mps 613 mmHg 14%

    24 July, Wednesday

    Time Temperature Precipitation Wind Pressure Humidity
    00:00 +26°C° 0 mm 1 mps 612 mmHg 15%
    01:00 +25°C° 0 mm 1 mps 612 mmHg 16%
    02:00 +25°C° 0 mm 1 mps 612 mmHg 17%
    03:00 +24°C° 0 mm 1 mps 612 mmHg 18%
    04:00 +23°C° 0 mm 1 mps 612 mmHg 19%
    05:00 +25°C° 0 mm 1 mps 613 mmHg 16%
    06:00 +28°C° 0 mm 1 mps 614 mmHg 14%
    07:00 +30°C° 0 mm 1 mps 615 mmHg 12%
    08:00 +32°C° 0 mm 1 mps 616 mmHg 11%
    09:00 +34°C° 0 mm 1 mps 616 mmHg 10%
    10:00 +36°C° 0 mm 1 mps 617 mmHg 9%
    11:00 +38°C° 0 mm 2 mps 616 mmHg 8%
    12:00 +39°C° 0 mm 2 mps 616 mmHg 8%
    13:00 +40°C° 0 mm 3 mps 616 mmHg 7%
    14:00 +41°C° 0 mm 4 mps 615 mmHg 7%
    15:00 +41°C° 0 mm 4 mps 615 mmHg 7%
    16:00 +42°C° 0 mm 5 mps 615 mmHg 7%
    17:00 +39°C° 0 mm 5 mps 614 mmHg 8%
    18:00 +36°C° 0 mm 5 mps 614 mmHg 9%
    19:00 +34°C° 0 mm 5 mps 613 mmHg 10%
    20:00 +32°C° 0 mm 4 mps 613 mmHg 11%
    21:00 +30°C° 0 mm 3 mps 613 mmHg 12%
    22:00 +28°C° 0 mm 2 mps 612 mmHg 13%
    23:00 +27°C° 0 mm 2 mps 612 mmHg 14%

    25 July, Thursday

    Time Temperature Precipitation Wind Pressure Humidity
    00:00 +26°C° 0 mm 1 mps 612 mmHg 14%
    01:00 +25°C° 0 mm 1 mps 611 mmHg 15%
    02:00 +25°C° 0 mm 1 mps 611 mmHg 16%
    03:00 +24°C° 0 mm 2 mps 611 mmHg 16%
    04:00 +24°C° 0 mm 2 mps 611 mmHg 17%
    05:00 +26°C° 0 mm 2 mps 612 mmHg 15%
    06:00 +28°C° 0 mm 2 mps 613 mmHg 13%
    07:00 +30°C° 0 mm 2 mps 614 mmHg 12%
    08:00 +32°C° 0 mm 2 mps 615 mmHg 11%
    09:00 +35°C° 0 mm 2 mps 615 mmHg 10%
    10:00 +37°C° 0 mm 2 mps 616 mmHg 9%
    11:00 +38°C° 0 mm 2 mps 615 mmHg 8%
    12:00 +39°C° 0 mm 2 mps 615 mmHg 7%
    13:00 +40°C° 0 mm 2 mps 615 mmHg 7%
    14:00 +40°C° 0 mm 2 mps 614 mmHg 6%
    15:00 +42°C° 0 mm 3 mps 614 mmHg 6%
    16:00 +42°C° 0 mm 3 mps 614 mmHg 6%
    17:00 +38°C° 0 mm 3 mps 613 mmHg 7%
    18:00 +35°C° 0 mm 3 mps 612 mmHg 9%
    19:00 +33°C° 0 mm 3 mps 611 mmHg 10%
    20:00 +30°C° 0 mm 2 mps 611 mmHg 11%
    21:00 +28°C° 0 mm 1 mps 611 mmHg 12%
    22:00 +27°C° 0 mm 1 mps 611 mmHg 14%
    23:00 +26°C° 0 mm 1 mps 610 mmHg 14%
    Show more